Retour au catalogue

STARLINK-34277

ActifCommunicationsSSO
NORAD 64156·PAYLOAD·🇺🇸 United States

Lancé May 27, 2025 depuis Vandenberg Space Force Base

Loading…

Prochains Passages (prochaines 24 heures)

TLE

FraisSource: CelesTrak SupGP

Époque: Sep 14, 2026, 21:17 UTC

1 64156C 25112L   26257.88729167  .00003481  00000+0  10810-3 0  2578
2 64156  97.2831 305.0799 0000954  92.8628 157.9345 15.33425131    13

Suivez STARLINK-34277 en temps réel avec AllMySat

Download on the App Store